#timestamp,LO_Frequency,Hit,StdDev 
1644825615.0,286046977.9,N
1644825615.9,286046977.9,N
1644825635.8,286046976.4,N
1644825655.6,286046978.6,N
1644825675.4,286046978.5,N
1644825695.3,286046975.0,Y
1644825715.1,286047000.3,P
1644825735.9,286047001.7,N
1644825755.7,286047001.0,N
1644825775.5,286046999.7,N
1644825795.4,286047006.1,N
1644825815.2,286047012.0,N
1644825835.0,286047006.9,N
1644825835.9,286047006.9,N
1644825855.8,286047006.8,N
1644825875.6,286047003.5,N
1644825895.5,286047002.6,N
1644825915.3,286046999.7,N
1644825935.1,286047000.7,N
1644825955.9,286046998.1,N
1644825975.7,286046997.7,N
1644825995.5,286046998.7,N
1644826015.4,286047003.4,N
1644826035.2,286047000.3,N
1644826055.1,286047003.9,N
1644826056.0,286047003.9,N
1644826075.8,286046999.8,N
1644826095.6,286047005.2,N
1644826115.5,286047003.4,N
1644826135.3,286047011.9,N
1644826155.1,286047004.4,N
1644826175.9,286047000.8,N
1644826195.7,286046998.9,N
1644826215.6,286047002.4,N
1644826235.4,286046999.8,N
1644826255.2,286047000.9,N
1644826275.1,286047001.2,N
1644826276.0,286047001.2,N
1644826295.8,286046999.9,N
1644826315.6,286047004.1,N
1644826335.5,286047008.4,N
1644826355.3,286047008.2,N
1644826375.2,286047007.9,N
1644826395.9,286047005.2,N
1644826415.7,286047005.3,N
1644826435.6,286047004.1,N
1644826455.4,286047002.3,N
1644826475.3,286047002.6,N
1644826495.1,286047004.2,N
1644826496.0,286047004.2,N
1644826515.8,286047005.2,N
1644826535.7,286047007.0,N
1644826555.5,286047008.0,N
1644826575.3,286047005.0,N
1644826595.2,286047001.7,N
1644826615.0,286047005.8,N
1644826615.9,286047005.8,N
1644826635.8,286047005.0,N
1644826655.6,286047004.2,N
1644826675.4,286047007.0,N
1644826695.3,286047009.6,Y
1644826715.1,286047007.9,P
1644826735.9,286047008.5,P
1644826755.7,286047007.5,P
1644826775.5,286047005.9,Y
1644826795.4,286047001.5,P
1644826815.2,286047001.1,N
1644826835.0,286046995.9,N
1644826835.9,286046995.9,N
1644826855.8,286046991.8,N
1644826875.6,286046992.8,N
1644826895.5,286046992.0,N
1644826915.3,286046989.5,N
1644826935.1,286046987.2,N
1644826955.9,286046990.0,N
1644826975.7,286046987.6,N
1644826995.6,286046988.3,N
1644827015.4,286046985.9,N
1644827035.2,286046984.2,N
1644827055.1,286046984.1,N
1644827056.0,286046984.1,N
1644827075.8,286046982.1,N
1644827095.6,286046983.2,N
1644827115.5,286046985.5,N
1644827135.3,286046986.8,N
1644827155.2,286046985.0,N
1644827175.9,286046987.1,N
1644827195.7,286046988.8,N
1644827215.6,286046993.2,N
1644827235.4,286046992.6,N
1644827255.2,286046991.9,N
1644827275.1,286046990.7,N
1644827276.0,286046990.7,N
1644827295.8,286046991.9,N
1644827315.7,286046996.0,N
1644827335.5,286046997.4,N
1644827355.3,286046993.6,N
1644827375.2,286046994.5,N
1644827395.0,286046997.3,N
1644827395.9,286046997.3,N
1644827415.7,286046996.5,N
1644827435.6,286046995.8,N
1644827455.4,286046991.7,N
1644827475.3,286046990.7,N
1644827495.1,286046989.8,N
1644827496.0,286046989.8,N
1644827515.8,286046988.4,N
1644827535.7,286046985.7,Y
1644827555.5,286046995.5,P
1644827575.4,286046998.9,N
1644827595.2,286047001.1,N
1644827615.0,286046999.9,N
1644827615.9,286046999.9,N
1644827635.8,286047002.6,N
1644827655.6,286047002.4,N
1644827675.4,286046999.9,N
1644827695.3,286047007.0,N
1644827715.1,286047009.5,N
1644827735.9,286047010.0,N
1644827755.7,286047010.4,N
1644827775.5,286047005.2,N
1644827795.4,286047003.7,N
1644827815.2,286047007.0,N
1644827835.1,286047008.8,N
1644827836.0,286047008.8,N
1644827855.8,286047017.0,Y
1644827875.6,286047018.7,P
1644827895.5,286047011.7,N
1644827915.3,286047006.5,N
1644827935.1,286047003.8,N
1644827955.9,286046999.9,N
1644827975.7,286046998.7,N
1644828025.6,286046996.2,E
1644828035.5,286046996.2,N
1644828055.3,286047000.3,P
1644828075.2,286047003.8,N
1644828095.0,286047004.6,N
1644828095.9,286047004.6,N
1644828115.8,286047010.2,Y
1644828135.6,286047005.7,P
1644828155.4,286047002.5,N
1644828175.3,286047001.2,N
1644828195.1,286047002.7,N
1644828215.8,286047004.6,N
1644828235.7,286047017.9,Y
1644828255.5,286047011.8,P
1644828275.4,286047005.3,N
1644828295.2,286047005.1,N
1644828315.0,286047008.6,N
1644828315.9,286047008.6,N
1644828335.8,286047008.4,N
1644828355.6,286047007.5,N
1644828375.5,286047005.2,N
1644828395.3,286047001.1,N
1644828415.1,286046998.9,N
1644828435.9,286046999.9,N
1644828455.7,286047003.4,N
1644828475.5,286047005.5,N
1644828495.4,286047008.5,N
1644828515.2,286047008.8,N
1644828535.0,286047008.4,N
1644828536.0,286047008.4,N
1644828555.8,286047008.4,N
1644828575.6,286047010.2,Y
1644828595.5,286047005.5,P
1644828615.3,286047001.0,P
1644828635.1,286047001.5,N
1644828655.9,286047010.0,Y
1644828675.7,286047009.1,P
1644828695.6,286047009.0,P
1644828715.4,286047018.7,P
1644828735.2,286047013.7,N
1644828755.1,286047006.2,N
1644828756.0,286047006.2,N
1644828775.8,286047004.6,N
1644828795.6,286047002.5,N
1644828815.5,286047000.7,N
1644828835.3,286047000.5,N
1644828855.2,286047005.5,N
1644828875.9,286047007.7,N
1644828895.7,286047017.7,Y
1644828915.6,286047016.5,P
1644828935.4,286047013.7,N
1644828955.2,286047012.2,N
1644828975.1,286047006.1,N
1644828976.0,286047006.1,N
1644828995.8,286047002.9,N
1644829015.7,286046996.9,N
1644829035.5,286046993.6,N
1644829055.3,286047002.0,N
1644829075.2,286047004.5,N
1644829095.0,286047000.5,N
1644829095.9,286047000.5,N
1644829115.8,286046995.0,N
1644829135.6,286046998.0,N
1644829155.4,286046993.9,N
1644829175.3,286046994.0,N
1644829195.1,286046994.9,N
